Location: Brachbach
(49.1847°N, 9.7240°E)
Time: 17:30:01
(UTC+00:00)

ZACube-1 - Visible Passes

Search period start: 14 March 2026 00:00
Search period end: 24 March 2026 00:00
Orbit: 536 x 596 km, 97.8° (Epoch: 14 March)

Date Brightness Start Highest point End Pass type
(mag) Time Alt. Az. Time Alt. Az. Time Alt. Az.
14 Mar ? 02:05:20 10° NNE 02:07:09 22° NE 02:07:09 22° NE visible
14 Mar ? 03:40:32 10° N 03:43:12 24° NW 03:43:12 24° NW visible
15 Mar ? 02:05:52 10° NNE 02:07:49 23° NE 02:07:49 23° NE visible
15 Mar ? 03:41:05 10° N 03:43:52 25° NW 03:43:52 25° NW visible
16 Mar ? 02:06:23 10° NNE 02:08:28 24° NE 02:08:28 24° NE visible
16 Mar ? 03:41:38 10° N 03:44:31 25° NW 03:44:31 25° NW visible
17 Mar ? 02:06:53 10° NNE 02:09:07 25° ENE 02:09:07 25° ENE visible
17 Mar ? 03:42:08 10° N 03:45:10 25° WNW 03:45:10 25° WNW visible
18 Mar ? 02:07:23 10° NNE 02:09:45 27° ENE 02:09:45 27° ENE visible
18 Mar ? 03:42:40 10° N 03:45:48 25° WNW 03:45:48 25° WNW visible
19 Mar ? 02:07:53 10° NNE 02:10:23 28° ENE 02:10:23 28° ENE visible
19 Mar ? 03:43:10 10° N 03:46:24 25° WNW 03:46:24 25° WNW visible
20 Mar ? 02:08:22 10° NNE 02:10:59 29° ENE 02:10:59 29° ENE visible
20 Mar ? 03:43:40 10° N 03:46:55 24° WNW 03:47:02 24° WNW visible
21 Mar ? 02:08:50 10° NNE 02:11:36 30° ENE 02:11:36 30° ENE visible
21 Mar ? 03:44:08 10° N 03:47:22 24° WNW 03:47:38 24° WNW visible
22 Mar ? 02:09:18 10° NNE 02:12:11 32° ENE 02:12:11 32° ENE visible
22 Mar ? 03:44:37 10° N 03:47:50 24° WNW 03:48:14 23° WNW visible
23 Mar ? 02:09:45 10° NNE 02:12:47 33° ENE 02:12:47 33° ENE visible
23 Mar ? 03:45:05 10° N 03:48:16 24° WNW 03:48:49 23° WNW visible
